Starlink 5609

operational
NORAD ID: 55348 Int'l Des: 2023-013 Owner: SPXS Country: US Constellation: starlink
LEOCIRCULAR

关于 Starlink 5609

正在加载描述...

实时位置

正在加载3D地球...

即将过境

高度历史

Altitude vs Time

uPlot chart will show altitude changes over time

两行轨道根数

1 55348U 23013T 26033.28543118 .00000741 00000-0 69921-4 0 9993
2 55348 43.0030 132.7141 0001289 286.3946 73.6755 15.02537976166386
Epoch: Feb 2, 2026 • Age: 20 hours

当前状态

高度 567.9 km
速度 7.58 km/s
星下点 -34.17°S, 101.83°W
发射日期 Jan 26, 2023
运行时间 3 years
类型 internet

技术详情

分类 Payload
质量 305.00 kg
干质量 290.00 kg
总质量 305.00 kg
长度 0.20 m
直径 2.80 m
跨度 9.00 m
形状 Box + pan
制造商 SPXS
平台类型 Starlink
阶段状态 In Orbit
所有者/国家 SPXS/US

大型星座

Loading constellations...